Вернуться в каталог

CZ-6A DEB

АктивенPO
NORAD 61422·DEBRIS·🇨🇳 China

Запущен Aug 6, 2024 с Taiyuan Satellite Launch Center

Loading…

Ближайшие Пролёты (ближайшие 24 часа)

TLE

СвежийSource: Space-Track

Эпоха: Sep 14, 2026, 22:33 UTC

1 61422U 24140YP  26257.93978565  .00000656  00000-0  42891-3 0  9994
2 61422  88.7419 246.4684 0200652  38.1772 323.3420 13.91645919104876

Отслеживайте CZ-6A DEB в реальном времени с AllMySat

Download on the App Store